www.pogodaiklimat.ru

Погода и климат >> Архив погоды >> Россия >> Якутия >> Покровск


ПОГОДА в Покровске

  • Прогноз погоды в Покровске
  • Монитор погоды в Покровске

АРХИВ ПОГОДЫ в Покровске

Время (UTC), дата Ветер
(напр.,м/с)
 
Видим.   Явления Облачность Т
(С)
Тd
(С)
f
(%)
Тe
(С)
Тes
(С)
Комфортность P
(гПа)
Po
(гПа)
Тmin
(С)
Tmax
(С)
R
(мм)
R24
(мм)
S
(см)
12 15.01 ЮЗ 3 4000 м дымка ясно -45.1 -47.2 79 -58 -58 опасность
обморожения
1031.2 1012.6 -41.9
15 15.01 З 2 500 м переохл. туман ясно -47.6 -50.0 76 -58 -58 опасность
обморожения
1032.4 1013.7
18 15.01 ЮЗ 1 500 м переохл. туман ясно -47.6 -50.0 76 -54 -54 опасность
обморожения
1033.4 1014.7
21 15.01 ЮЗ 2 500 м переохл. туман ясно -47.1 -49.0 81 -57 -57 опасность
обморожения
1034.4 1015.7
00 16.01 З 2 500 м переохл. туман ясно -46.2 -48.1 81 -56 -56 опасность
обморожения
1036.2 1017.5 -48.4 18
03 16.01 З 2 500 м переохл. туман ясно -43.7 -45.7 80 -53 -53 опасность
обморожения
1036.7 1018.2
06 16.01 ЮЗ 3 500 м переохл. туман ясно -41.3 -43.2 82 -53 -53 опасность
обморожения
1036.9 1018.6
09 16.01 ЮЗ 3 500 м переохл. туман ясно -41.5 -43.8 78 -53 -53 опасность
обморожения
1037.8 1019.5
12 16.01 З 1 500 м переохл. туман ясно -43.8 -45.7 81 -49 -49 опасность
обморожения
1038.8 1020.3 -41.3
15 16.01 З 1 500 м переохл. туман ясно -46.6 -49.0 76 -53 -53 опасность
обморожения
1038.3 1019.6
18 16.01 З 2 500 м переохл. туман ясно -47.8 -50.0 78 -58 -58 опасность
обморожения
1037.8 1019.0
21 16.01 ЮЗ 1 500 м переохл. туман ясно -47.9 -50.0 79 -54 -54 опасность
обморожения
1036.6 1017.8
00 17.01 штиль 0 500 м переохл. туман ясно -48.3 -50.0 82 -48 -48 опасность
обморожения
1035.5 1016.8 -48.3 28
03 17.01 штиль 0 500 м переохл. туман ясно -43.7 -45.7 80 -44 -43 опасность
обморожения
1033.5 1015.1
06 17.01 СВ 1 500 м переохл. туман 3/0
[Ci fib]
-41.6 -43.8 79 -47 -47 опасность
обморожения
1031.0 1012.7
09 17.01 СВ 3 20 км {туман} 6/0
[Ci fib]
-39.9 -42.2 78 -52 -52 опасность
обморожения
1029.2 1011.2
12 17.01 С 4 20 км {туман} 4/0
[Ci fib]
-40.1 -42.2 80 -54 -54 опасность
обморожения
1027.3 1009.3 -39.9
15 17.01 штиль 0 20 км 10/0
[Cs]
-39.2 -41.2 81 -39 -39 опасность
обморожения
1025.2 1007.3
18 17.01 штиль 0 4000 м дымка 10/0
[Cs]
-39.7 -41.7 81 -40 -40 опасность
обморожения
1023.9 1006.0
21 17.01 штиль 0 4000 м дымка 10/0
[Cs]
-41.8 -43.8 81 -42 -42 опасность
обморожения
1023.8 1005.7
00 18.01 штиль 0 500 м переохл. туман 10/0
[Ci fib]
-43.1 -45.0 81 -43 -43 опасность
обморожения
1023.6 1005.4 -43.1 28
03 18.01 СВ 2 4000 м дымка {туман} 10/0
[Ci fib]
-40.1 -42.2 80 -49 -49 опасность
обморожения
1022.5 1004.6
06 18.01 С 1 4000 м дымка {туман} 10/0
[Ci fib]
-39.8 -42.2 78 -45 -45 опасность
обморожения
1022.5 1004.6
09 18.01 СВ 2 4000 м дымка 10/0
[Ci fib]
-39.4 -41.7 79 -48 -48 опасность
обморожения
1022.6 1004.7
12 18.01 С 1 10 км слаб. снег 10/0
[Cs]
-38.9 -41.2 79 -44 -44 опасность
обморожения
1022.9 1005.1 -38.9 0.2
15 18.01 С 1 10 км слаб. снег 10/0
[Cs]
-38.6 -40.8 80 -44 -44 опасность
обморожения
1022.9 1005.1
18 18.01 С 1 20 км {снег} 10/0
[Ci fib]
-39.6 -41.7 80 -45 -45 опасность
обморожения
1023.8 1005.9
21 18.01 штиль 0 10 км дымка 10/0
[Ci fib]
-41.1 -43.2 80 -41 -41 опасность
обморожения
1024.4 1006.4
00 19.01 ЮЗ 1 4000 м слаб. снег 10/0
[Cs]
-40.0 -42.2 79 -45 -45 опасность
обморожения
1025.8 1007.8 -41.1 0.2 28
03 19.01 штиль 0 4000 м в посл. час туман 10/0
[Ci fib]
-39.1 -41.2 80 -39 -39 опасность
обморожения
1026.1 1008.1
06 19.01 штиль 0 4000 м дымка {снег, туман} ясно -38.4 -40.8 78 -38 -38 опасность
обморожения
1026.5 1008.6
09 19.01 штиль 0 500 м переохл. туман ясно -41.5 -43.8 78 -42 -42 опасность
обморожения
1027.3 1009.1
12 19.01 С 1 500 м переохл. туман 10/0
[Cs]
-43.1 -45.0 81 -49 -49 опасность
обморожения
1027.3 1009.0 -38.4 0.0
15 19.01 Ю 2 4000 м дымка {туман} ясно -41.1 -43.2 80 -50 -50 опасность
обморожения
1026.6 1008.4
18 19.01 В 3 4000 м дымка {туман} ясно -42.3 -44.4 80 -54 -54 опасность
обморожения
1025.2 1007.1
21 19.01 С 3 4000 м дымка ясно -42.9 -45.0 80 -55 -55 опасность
обморожения
1023.5 1005.4
00 20.01 СВ 3 4000 м дымка ясно -43.8 -45.7 81 -56 -56 опасность
обморожения
1022.3 1004.1 -43.8 28
03 20.01 СВ 3 4000 м дымка ясно -43.4 -45.7 78 -56 -55 опасность
обморожения
1020.0 1001.9
06 20.01 СВ 3 4000 м дымка ясно -41.3 -43.2 82 -53 -53 опасность
обморожения
1018.0 1000.0
09 20.01 СВ 4 4000 м дымка ясно -41.8 -43.8 81 -56 -56 опасность
обморожения
1017.5 999.5
12 20.01 СВ 3 4000 м дымка ясно -40.8 -43.2 77 -53 -53 опасность
обморожения
1016.6 998.8 -41.3
15 20.01 СВ 3 4000 м дымка ясно -39.8 -42.2 78 -51 -51 опасность
обморожения
1015.1 997.4
18 20.01 СВ 3 4000 м дымка ясно -38.9 -41.2 79 -50 -50 опасность
обморожения
1014.4 996.8
21 20.01 СВ 3 4000 м дымка ясно -38.8 -41.2 78 -50 -50 опасность
обморожения
1014.1 996.5
00 21.01 С 2 4000 м дымка 6/0
[Ci sp]
-38.7 -40.8 80 -48 -48 опасность
обморожения
1014.1 996.5 -40.8 28
03 21.01 С 2 4000 м дымка 4/0
[Ci fib]
-37.2 -39.5 79 -46 -45 опасность
обморожения
1013.6 996.0
06 21.01 С 2 10 км 6/0
[Ci sp]
-34.9 -37.1 80 -43 -43 опасность
обморожения
1013.1 995.8
09 21.01 С 4 10 км 4/0
[Ci fib]
-35.5 -37.7 80 -48 -48 опасность
обморожения
1013.8 996.4
12 21.01 СВ 3 20 км 4/0
[Ci fib]
-36.6 -38.8 80 -48 -48 опасность
обморожения
1014.5 997.1 -34.9
15 21.01 С 3 20 км 3/0
[Ci fib]
-37.3 -39.5 80 -48 -48 опасность
обморожения
1016.1 998.4
18 21.01 СВ 2 20 км 3/0
[Ci fib]
-37.7 -39.9 80 -46 -46 опасность
обморожения
1018.1 1000.4
21 21.01 С 1 4000 м дымка ясно -41.2 -43.2 81 -47 -47 опасность
обморожения
1020.4 1002.4
00 22.01 штиль 0 4000 м дымка ясно -39.7 -41.7 81 -40 -40 опасность
обморожения
1022.3 1004.4 -41.2 28
03 22.01 Ю 1 10 км дымка 10/0
[Cs]
-36.4 -38.8 78 -41 -41 опасность
обморожения
1023.8 1006.2
06 22.01 ЮЗ 1 20 км 10/0
[Cs]
-34.3 -36.5 80 -39 -39 опасность
обморожения
1026.0 1008.4
09 22.01 ЮЗ 2 20 км 10/0
[Cs]
-34.2 -36.5 80 -42 -42 опасность
обморожения
1028.0 1010.4

 

Местоположение метеостанции Покровск (Якутия, Россия): широта 61.48 долгота 129.10 высота над уровнем моря 121 м.

В архиве по умолчанию представлена погода в Покровске за последнюю неделю. Архивные данные за месяц целиком и за предыдущие месяцы, начиная с января 2011 года, Вы можете получить, выбрав интересующий диапазон дат из раскрывающегося списка и нажав кнопку "Ввод!".


*Определитесь, кто Вы:
робот инопланетянин человек

Внимание! Время в таблицах - всемирное. Для получения местного времени необходимо прибавить поправку, которая равна 9 ч.

Смотрите также архив погоды в соседних городах и на ближайших метеорологических станциях:

Погода в Якутске (Якутия, Россия) (64 км)
Погода в Тегюльте (Якутия, Россия) (122 км)
Погода в Намцах (Якутия, Россия) (140 км)
Погода в Бердигестяхе (Якутия, Россия) (141 км)
Погода в Амге (Якутия, Россия) (163 км)
Погода в Чурапче (Якутия, Россия) (194 км)
Погода в Исити (Якутия, Россия) (217 км)
Погода в Батамае (Якутия, Россия) (227 км)
Погода в Буяге (Якутия, Россия) (232 км)
Погода в Тонгулахе (Якутия, Россия) (247 км)

Пояснения к столбцам:

Ветер - указаны скорость ветра в м/с - средняя за 10 мин, порывы в срок и между сроками (в фигурных скобках) и направление, откуда дует ветер: С - северный, СВ - северо-восточный, В - восточный, ЮВ - юго-восточный, Ю - южный, ЮЗ - юго-западный, З - западный, СЗ - северо-западный.
Видимость - горизонтальная дальность видимости в метрах или километрах. При видимости от 1 до 10 км при отсутствии осадков обычно наблюдается дымка, при ухудшении видимости до 1 км и менее - туман. В сухую погоду видимость может ухудшаться дымом, пылью или мглою.
Явления - указаны атмосферные явления, наблюдавшиеся в срок или в последний час перед сроком; фигурными скобками обозначены явления, наблюдавшиеся между сроками (за 1-3 часа до срока); квадратными скобками обозначены град или гололедные отложения с указанием их диаметра в мм.
Облачность - указаны через наклонную черту общая и нижняя облачность в баллах и высота нижней границы облаков в метрах; квадратными скобками обозначены формы облаков: Ci - перистые, Cs - перисто-слоистые, Cc - перисто-кучевые, Ac - высококучевые, As - высокослоистые, Sc - слоисто-кучевые, Ns - слоисто-дождевые, Cu - кучевые, Cb - кучево-дождевые. Подробнее классификацию облаков см. в Атласе облаков (PDF).
T - Температура воздуха - температура, измеренная на высоте 2 м над землей.
Td - Температура точки росы - температура, при понижении до которой содержащийся в воздухе водяной пар достигнет насыщения.
f - Относительная влажность воздуха - влажноcть воздуха, измеренная на высоте 2 м над землей.
Te - Эффективная температура - температура, которую ощущает одетый по сезону человек в тени. Характеристика душности погоды. При расчете учитывается влияние влажности воздуха и скорости ветра на теплоощущения человека.
Tes - Эффективная температура на солнце - температура, которую ощущает человек, с поправкой на солнечный нагрев. Характеристика знойности погоды. Зависит от высоты солнца над горизонтом, облачности и скорости ветра. Ночью, в пасмурную погоду, а также при ветре 12 м/с и более поправка равна нулю.
P - Атмосферное давление - приведенное к уровню моря атмосферное давление.
Po - Атмосферное давление - измеренное на уровне метеостанции атмосферное давление.
Tmin - Минимальная температура - минимум температуры воздуха на высоте 2 м над землей.
Tmax - Максимальная температура - максимум температуры воздуха на высоте 2 м над землей.
R - Количество осадков - Количество выпавших осадков за период времени, мм. При наведении курсора мыши на число - период времени, за который выпало указанное количество осадков.
R24 - Количество осадков - Количество выпавших осадков за 24 часа, мм.
S - Снежный покров - Высота снежного покрова, см. При наведении курсора мыши на число - состояние снежного покрова и степень покрытия местности в баллах.